FW9380 Weather Reports


time (UTC)temp
F
wind
direction
speed
knots
gust
knots
rain 1hr
in
rain 24hr
in
rain mn
in
humidity
%
barometer
mb
20260504080644 59 153 0.0 0.0 0.00 0.00 0.00 89 1017.1
20260504080140 59 153 0.0 0.0 0.00 0.00 0.00 89 1017.3
20260504070108 61 137 0.0 0.0 0.00 0.00 0.00 85 1017.6
20260504050456 65 163 0.0 0.0 0.00 0.00 0.00 77 1018.2
20260504045953 65 168 0.0 0.0 0.00 0.00 0.00 77 1018.1
20260504045449 65 166 0.9 0.9 0.00 0.00 0.00 77 1018.1
20260504044946 65 127 0.0 0.9 0.00 0.00 0.00 77 1018.1
20260504044443 65 171 0.9 0.9 0.00 0.00 0.00 78 1018.0
20260504043940 65 178 0.9 0.9 0.00 0.00 0.00 79 1017.9
20260504043437 65 177 0.0 0.0 0.00 0.00 0.00 78 1018.1
20260504042935 65 174 0.9 0.9 0.00 0.00 0.00 79 1017.8
20260504042431 65 174 0.0 0.0 0.00 0.00 0.00 78 1018.2
20260504041928 65 173 0.0 0.0 0.00 0.00 0.00 78 1018.2
20260504041424 65 174 0.0 0.0 0.00 0.00 0.00 78 1017.9
20260504040920 65 174 0.0 0.9 0.00 0.00 0.00 77 1018.0
20260504040418 65 171 0.9 0.9 0.00 0.00 0.00 77 1018.0
20260504035914 66 158 0.0 0.0 0.00 0.00 0.00 76 1018.0
20260504035412 66 150 0.0 0.0 0.00 0.00 0.00 76 1018.0
20260504034908 66 129 0.0 0.0 0.00 0.00 0.00 76 1017.8
20260504034406 66 160 0.0 0.0 0.00 0.00 0.00 76 1017.9
20260504033903 66 158 0.0 0.0 0.00 0.00 0.00 76 1017.9
20260504033400 66 144 0.9 0.9 0.00 0.00 0.00 75 1017.7
20260504032857 66 173 0.0 0.0 0.00 0.00 0.00 76 1017.8
20260504032354 66 192 0.0 0.0 0.00 0.00 0.00 76 1017.6
20260504031850 65 159 0.0 0.0 0.00 0.00 0.00 76 1017.9
20260504031348 64 168 0.0 0.0 0.00 0.00 0.00 79 1017.9
20260504030844 64 171 0.0 0.0 0.00 0.00 0.00 76 1017.7
20260504030342 64 171 0.0 0.0 0.00 0.00 0.00 75 1017.8
20260504025837 65 171 0.0 0.0 0.00 0.00 0.00 74 1017.8
20260504025335 65 171 0.0 0.0 0.00 0.00 0.00 72 1017.8
20260504024831 65 171 0.0 0.0 0.00 0.00 0.00 73 1017.8
20260504024327 65 171 0.0 0.0 0.00 0.00 0.00 73 1017.6
20260504023824 65 171 0.0 0.0 0.00 0.00 0.00 72 1017.8
20260504023321 65 171 0.0 0.0 0.00 0.00 0.00 70 1017.8
20260504022817 66 171 0.0 0.0 0.00 0.00 0.00 74 1017.9
20260504022314 66 171 0.0 0.0 0.00 0.00 0.00 74 1017.8
20260504021810 66 167 0.0 0.0 0.00 0.00 0.00 73 1017.6
20260504021308 66 167 0.0 0.0 0.00 0.00 0.00 72 1017.6
20260504020805 67 167 0.0 0.0 0.00 0.00 0.00 72 1017.6
20260504020302 67 167 0.0 0.0 0.00 0.00 0.00 72 1017.5
20260504015757 68 167 0.0 0.0 0.00 0.00 0.00 72 1017.4
20260504015254 68 165 0.0 0.0 0.00 0.00 0.00 71 1017.4
20260504014750 68 165 0.0 0.0 0.00 0.00 0.00 70 1017.4
20260504014246 68 164 0.0 0.0 0.00 0.00 0.00 69 1017.2
20260504013744 69 170 0.0 0.0 0.00 0.00 0.00 68 1017.3
20260504013242 69 179 0.0 0.0 0.00 0.00 0.00 69 1017.3
20260504012738 69 180 0.0 0.9 0.00 0.00 0.00 69 1017.0
20260504012236 69 181 0.0 0.0 0.00 0.00 0.00 69 1017.1
20260504011732 69 179 0.0 0.0 0.00 0.00 0.00 70 1017.0
20260504011229 69 228 0.0 0.0 0.00 0.00 0.00 69 1016.9
20260504010725 69 173 0.0 0.0 0.00 0.00 0.00 68 1017.0
20260504010221 69 173 0.0 0.0 0.00 0.00 0.00 68 1016.9
20260504005718 69 183 0.0 0.0 0.00 0.00 0.00 67 1016.7
20260504005215 69 179 0.0 0.9 0.00 0.00 0.00 67 1017.0
20260504004713 69 182 0.0 0.9 0.00 0.00 0.00 66 1016.8
20260504004210 69 180 0.0 0.0 0.00 0.00 0.00 65 1016.7
20260504003706 69 180 0.0 0.0 0.00 0.00 0.00 66 1016.7
20260504003203 69 182 0.0 0.9 0.00 0.00 0.00 66 1016.8
20260504002700 69 179 0.0 0.0 0.00 0.00 0.00 66 1016.8
20260504002157 69 185 0.0 0.0 0.00 0.00 0.00 65 1016.6
20260504001655 69 196 0.0 0.0 0.00 0.00 0.00 64 1016.8
20260504001151 69 186 0.0 0.0 0.00 0.00 0.00 63 1016.8
20260504000648 70 151 0.0 0.9 0.00 0.00 0.00 62 1016.6
20260504000145 70 235 0.0 0.9 0.00 0.00 0.00 61 1016.6
20260503235643 70 184 0.0 0.0 0.00 0.00 0.00 60 1016.6
20260503235140 70 212 0.9 0.9 0.00 0.00 0.00 60 1016.7
20260503234638 70 171 0.9 0.9 0.00 0.00 0.00 61 1016.6
20260503234136 70 189 0.0 0.0 0.00 0.00 0.00 60 1016.7
20260503233632 71 231 0.9 1.7 0.00 0.00 0.00 61 1016.7
20260503233128 71 186 0.0 0.9 0.00 0.00 0.00 60 1016.6
20260503232625 71 208 0.9 0.9 0.00 0.00 0.00 56 1016.7
20260503232122 71 175 0.9 1.7 0.00 0.00 0.00 55 1016.8
20260503231620 72 205 0.9 0.9 0.00 0.00 0.00 54 1016.7
20260503231116 72 185 0.0 0.9 0.00 0.00 0.00 53 1016.6
20260503230614 72 177 0.9 0.9 0.00 0.00 0.00 53 1016.8
20260503230111 72 223 0.9 0.9 0.00 0.00 0.00 52 1016.6
20260503225608 73 182 0.0 0.9 0.00 0.00 0.00 52 1016.7
20260503225107 72 194 0.9 0.9 0.00 0.00 0.00 52 1016.7
20260503224605 72 182 0.9 1.7 0.00 0.00 0.00 51 1016.9
20260503224103 72 178 0.0 0.0 0.00 0.00 0.00 50 1016.6
20260503223601 73 194 0.9 1.7 0.00 0.00 0.00 49 1016.6
20260503223056 73 204 0.0 0.9 0.00 0.00 0.00 50 1016.6
20260503222554 73 207 1.7 1.7 0.00 0.00 0.00 50 1016.6
20260503222052 73 191 0.0 0.9 0.00 0.00 0.00 49 1016.7
20260503221550 73 177 0.0 0.9 0.00 0.00 0.00 49 1016.7
20260503221047 73 179 0.0 0.9 0.00 0.00 0.00 46 1016.5
20260503220543 73 169 0.0 0.9 0.00 0.00 0.00 47 1016.5
20260503220040 74 242 0.9 1.7 0.00 0.00 0.00 47 1017.0
20260503215537 74 211 0.9 0.9 0.00 0.00 0.00 49 1016.7
20260503215034 74 180 1.7 1.7 0.00 0.00 0.00 47 1016.8
20260503214533 75 177 0.0 0.9 0.00 0.00 0.00 47 1016.9
20260503214029 75 179 0.0 0.9 0.00 0.00 0.00 50 1016.9
20260503213528 74 178 0.9 0.9 0.00 0.00 0.00 50 1016.8
20260503213024 76 217 0.9 1.7 0.00 0.00 0.00 45 1017.1
20260503212521 76 180 0.9 1.7 0.00 0.00 0.00 43 1017.0
20260503212019 76 196 0.9 0.9 0.00 0.00 0.00 45 1017.2
20260503211515 77 118 1.7 1.7 0.00 0.00 0.00 38 1017.0
20260503211011 78 164 0.9 0.9 0.00 0.00 0.00 40 1017.2
20260503210508 78 178 0.9 0.9 0.00 0.00 0.00 39 1017.1
20260503210004 78 159 0.0 0.0 0.00 0.00 0.00 35 1017.1
20260503205501 78 77 0.0 0.9 0.00 0.00 0.00 36 1017.2
20260503204956 78 42 1.7 1.7 0.00 0.00 0.00 34 1017.1
20260503204454 78 94 0.9 1.7 0.00 0.00 0.00 36 1017.3
20260503203950 77 133 0.0 0.0 0.00 0.00 0.00 37 1017.3
20260503203448 76 81 2.6 2.6 0.00 0.00 0.00 39 1017.2
20260503202944 77 105 0.0 0.9 0.00 0.00 0.00 39 1017.4
20260503202443 77 186 0.9 1.7 0.00 0.00 0.00 36 1017.5
20260503201941 79 77 2.6 4.3 0.00 0.00 0.00 34 1017.5
20260503201438 78 83 1.7 2.6 0.00 0.00 0.00 36 1017.6
20260503200936 78 58 2.6 4.3 0.00 0.00 0.00 37 1017.6
20260503200432 78 102 0.0 0.9 0.00 0.00 0.00 36 1017.6
20260503195928 77 81 0.0 0.9 0.00 0.00 0.00 38 1017.5
20260503195426 77 98 0.9 1.7 0.00 0.00 0.00 36 1018.0
20260503194922 77 155 2.6 4.3 0.00 0.00 0.00 35 1018.2
20260503194419 77 167 0.0 0.0 0.00 0.00 0.00 37 1018.1
20260503193915 77 134 0.9 0.9 0.00 0.00 0.00 39 1018.2
20260503193410 78 163 0.0 0.0 0.00 0.00 0.00 37 1018.4
20260503192906 78 156 0.9 0.9 0.00 0.00 0.00 37 1018.4
20260503192403 77 245 0.9 1.7 0.00 0.00 0.00 38 1018.6
20260503191859 77 77 1.7 2.6 0.00 0.00 0.00 38 1018.7
20260503191356 77 147 0.9 1.7 0.00 0.00 0.00 35 1018.7
20260503190852 78 47 2.6 4.3 0.00 0.00 0.00 35 1018.8
20260503190350 77 137 0.9 0.9 0.00 0.00 0.00 37 1019.0
20260503185846 77 35 3.5 4.3 0.00 0.00 0.00 34 1019.0
20260503185342 77 88 0.9 0.9 0.00 0.00 0.00 36 1019.3
20260503184837 77 133 0.9 0.9 0.00 0.00 0.00 36 1019.3
20260503184333 77 152 0.9 1.7 0.00 0.00 0.00 33 1019.4
20260503183829 76 52 2.6 2.6 0.00 0.00 0.00 34 1019.2
20260503183326 76 89 0.9 1.7 0.00 0.00 0.00 34 1019.4
20260503182824 76 80 1.7 2.6 0.00 0.00 0.00 38 1019.6
20260503182323 77 140 0.0 0.9 0.00 0.00 0.00 34 1019.4
20260503181820 75 89 0.9 0.9 0.00 0.00 0.00 36 1019.5
20260503181317 75 216 0.9 1.7 0.00 0.00 0.00 35 1019.7
20260503180813 75 44 2.6 2.6 0.00 0.00 0.00 35 1019.9
20260503180311 76 86 2.6 2.6 0.00 0.00 0.00 33 1019.7
20260503175807 75 147 0.9 0.9 0.00 0.00 0.00 36 1019.7
20260503175305 76 125 0.9 0.9 0.00 0.00 0.00 36 1019.8
20260503174800 76 136 0.0 0.9 0.00 0.00 0.00 36 1019.7
20260503174259 75 79 0.0 0.9 0.00 0.00 0.00 37 1019.6
20260503173754 75 127 1.7 2.6 0.00 0.00 0.00 36 1019.5
20260503173250 74 75 0.9 1.7 0.00 0.00 0.00 37 1019.7
20260503172747 74 130 0.9 1.7 0.00 0.00 0.00 37 1019.9
20260503172244 75 52 4.3 5.2 0.00 0.00 0.00 35 1019.9
20260503171741 75 160 0.9 1.7 0.00 0.00 0.00 39 1020.0
20260503171238 75 112 2.6 5.2 0.00 0.00 0.00 38 1019.9
20260503170735 74 86 0.9 1.7 0.00 0.00 0.00 39 1019.9
20260503170231 74 102 2.6 2.6 0.00 0.00 0.00 40 1020.2
20260503160153 73 105 2.6 4.3 0.00 0.00 0.00 42 1020.7
20260503150623 70 32 0.9 0.9 0.00 0.00 0.00 55 1020.9
20260503150119 70 64 0.9 0.9 0.00 0.00 0.00 56 1021.0
20260503131013 66 98 2.6 4.3 0.00 0.00 0.00 61 1020.1
20260503130511 66 89 0.0 0.9 0.00 0.00 0.00 63 1020.1
20260503110401 58 130 0.0 0.0 0.00 0.00 0.00 81 1019.0
20260503090252 58 147 0.0 0.0 0.00 0.00 0.00 78 1018.7
20260503081220 60 122 0.9 0.9 0.00 0.00 0.00 71 1018.1